Retour au catalogue

STARLINK-31045

ActifCommunicationsVLEO
NORAD 58541·PAYLOAD·🇺🇸 United States

Lancé Dec 8, 2023 depuis Vandenberg Space Force Base

Loading…

Prochains Passages (prochaines 24 heures)

TLE

FraisSource: CelesTrak SupGP

Époque: Sep 15, 2026, 02:35 UTC

1 58541C 23192L   26258.10812500  .00074877  00000+0  22121-2 0  2580
2 58541  53.1592 339.1175 0001080  92.9089 262.4420 15.34355446    16

Suivez STARLINK-31045 en temps réel avec AllMySat

Download on the App Store